Location: Newark
(51.3318°N, 0.0053°E)
Time: 17:41:37
(UTC+00:00)

M-CUBED/EXP-1 PRIME - Pass Details

Date: 02 July 2022
Orbit: 422 x 631 km, 101.7° (Epoch: 17 August)

Event Time Altitude Azimuth Distance (km) Brightness Sun altitude
Exits shadow 01:29:44 25° 207° (SSW) 926 ? -13.3°
Maximum altitude 01:31:05 37° 256° (WSW) 707 ? -13.2°
Drops below altitude 10° 01:34:16 10° 325° (NW) 1,601 ? -13.0°
Sets 01:36:28 0° 334° (NNW) 2,512 ? -12.9°
